RYR7273 EPKK-LDZD

Flight info

Callsign RYR7273
Flight time 1h 5m
Altitude 38000
Route BABKO DCT NIDOK DCT XOMBA DCT KOPRY DCT KUDUL
Aircraft B738/M-SDE3FGILRWY/SB1

Departure

Time 2026-04-22 20:06
Airport Kraków John Paul II International Airport (EPKK)

Arrival

Time 2026-04-22 21:11
Airport Zadar Airport (LDZD)
Time Latitude Longitude Altitude Speed Heading
2026-04-22 19:47 50.07472 19.80080 799 ft 0 kts 168°
2026-04-22 20:02 50.07470 19.80080 799 ft 1 kts 168°
2026-04-22 20:02 50.07445 19.80088 799 ft 7 kts 168°
2026-04-22 20:02 50.07419 19.80164 799 ft 12 kts 82°
2026-04-22 20:02 50.07436 19.80292 799 ft 9 kts 77°
2026-04-22 20:03 50.07469 19.80376 799 ft 10 kts 28°
2026-04-22 20:03 50.07532 19.80407 799 ft 9 kts 17°
2026-04-22 20:03 50.07594 19.80422 799 ft 9 kts 352°
2026-04-22 20:03 50.07654 19.80400 799 ft 9 kts 348°
2026-04-22 20:04 50.07719 19.80379 799 ft 10 kts 348°
2026-04-22 20:04 50.07800 19.80352 799 ft 14 kts 348°
2026-04-22 20:04 50.07901 19.80318 799 ft 16 kts 348°
2026-04-22 20:04 50.08008 19.80266 799 ft 13 kts 309°
2026-04-22 20:05 50.08007 19.80166 800 ft 7 kts 257°
2026-04-22 20:05 50.08002 19.80131 800 ft 0 kts 257°
2026-04-22 20:05 50.07982 19.79989 800 ft 45 kts 258°
2026-04-22 20:06 50.07862 19.79122 799 ft 116 kts 257°
2026-04-22 20:06 50.07658 19.77602 887 ft 165 kts 258°
2026-04-22 20:06 50.07406 19.75705 1359 ft 190 kts 259°
2026-04-22 20:06 50.07113 19.73632 2075 ft 191 kts 259°
2026-04-22 20:07 50.06814 19.71553 2603 ft 209 kts 261°
2026-04-22 20:07 50.06484 19.69234 2999 ft 227 kts 261°
2026-04-22 20:07 50.05937 19.66868 3612 ft 242 kts 238°
2026-04-22 20:07 50.04659 19.65124 4399 ft 256 kts 207°
2026-04-22 20:08 50.02828 19.64664 4838 ft 281 kts 173°
2026-04-22 20:08 50.00885 19.65270 5563 ft 288 kts 166°
2026-04-22 20:08 49.98914 19.65994 6369 ft 294 kts 165°
2026-04-22 20:08 49.96904 19.66726 7179 ft 298 kts 166°
2026-04-22 20:09 49.94879 19.67437 8080 ft 298 kts 166°
2026-04-22 20:09 49.92848 19.68133 8957 ft 300 kts 167°
2026-04-22 20:09 49.90826 19.68817 9794 ft 303 kts 167°
2026-04-22 20:09 49.88739 19.69407 10501 ft 310 kts 178°
2026-04-22 20:10 49.86528 19.68792 10722 ft 332 kts 206°
2026-04-22 20:10 49.84446 19.67090 11203 ft 343 kts 211°
2026-04-22 20:10 49.82378 19.65265 11893 ft 349 kts 211°
2026-04-22 20:10 49.80259 19.63380 12671 ft 353 kts 211°
2026-04-22 20:11 49.78108 19.61480 13439 ft 358 kts 210°
2026-04-22 20:11 49.75925 19.59572 14197 ft 363 kts 210°
2026-04-22 20:11 49.73708 19.57648 14926 ft 367 kts 209°
2026-04-22 20:11 49.71458 19.55708 15649 ft 373 kts 209°
2026-04-22 20:12 49.69172 19.53740 16358 ft 378 kts 208°
2026-04-22 20:12 49.66855 19.51750 17069 ft 384 kts 208°
2026-04-22 20:12 49.65269 19.50389 17551 ft 387 kts 208°
2026-04-22 20:12 49.62123 19.47694 18497 ft 394 kts 208°
2026-04-22 20:13 49.59718 19.45618 19103 ft 399 kts 208°
2026-04-22 20:13 49.57295 19.43476 19740 ft 403 kts 208°
2026-04-22 20:13 49.54857 19.41299 20368 ft 407 kts 208°
2026-04-22 20:13 49.52390 19.39094 20971 ft 412 kts 208°
2026-04-22 20:14 49.49894 19.36867 21575 ft 417 kts 208°
2026-04-22 20:14 49.47371 19.34622 22163 ft 421 kts 208°
2026-04-22 20:14 49.44824 19.32361 22754 ft 425 kts 207°
2026-04-22 20:14 49.42244 19.30076 23339 ft 430 kts 207°
2026-04-22 20:15 49.39643 19.27777 23884 ft 434 kts 207°
2026-04-22 20:15 49.37018 19.25459 24366 ft 437 kts 207°
2026-04-22 20:15 49.34373 19.23128 24891 ft 439 kts 207°
2026-04-22 20:15 49.31717 19.20789 25395 ft 442 kts 207°
2026-04-22 20:16 49.29044 19.18438 25867 ft 445 kts 207°
2026-04-22 20:16 49.26348 19.16071 26320 ft 448 kts 206°
2026-04-22 20:16 49.23635 19.13692 26770 ft 451 kts 206°
2026-04-22 20:16 49.20902 19.11297 27252 ft 453 kts 206°
2026-04-22 20:17 49.19088 19.09710 27568 ft 455 kts 206°
2026-04-22 20:17 49.16328 19.07297 27968 ft 458 kts 206°
2026-04-22 20:17 49.13555 19.04876 28390 ft 461 kts 206°
2026-04-22 20:17 49.10758 19.02438 28825 ft 464 kts 206°
2026-04-22 20:18 49.07952 18.99994 29258 ft 466 kts 206°
2026-04-22 20:18 49.05125 18.97535 29671 ft 469 kts 205°
2026-04-22 20:18 49.02283 18.95067 30068 ft 471 kts 205°
2026-04-22 20:18 48.99430 18.92591 30424 ft 473 kts 205°
2026-04-22 20:19 48.96560 18.90105 30723 ft 476 kts 205°
2026-04-22 20:19 48.93668 18.87602 31013 ft 479 kts 205°
2026-04-22 20:19 48.90761 18.85089 31290 ft 482 kts 205°
2026-04-22 20:19 48.87835 18.82567 31586 ft 484 kts 204°
2026-04-22 20:20 48.84842 18.80233 31878 ft 484 kts 200°
2026-04-22 20:20 48.81787 18.78073 32192 ft 484 kts 199°
2026-04-22 20:20 48.78717 18.75981 32591 ft 483 kts 199°
2026-04-22 20:20 48.75647 18.73910 32996 ft 482 kts 199°
2026-04-22 20:21 48.72590 18.71842 33398 ft 482 kts 199°
2026-04-22 20:21 48.69533 18.69760 33797 ft 481 kts 199°
2026-04-22 20:21 48.66483 18.67671 34173 ft 481 kts 199°
2026-04-22 20:21 48.63436 18.65576 34480 ft 481 kts 200°
2026-04-22 20:22 48.60392 18.63478 34814 ft 480 kts 200°
2026-04-22 20:22 48.57356 18.61386 35147 ft 479 kts 200°
2026-04-22 20:22 48.54361 18.59325 35437 ft 478 kts 201°
2026-04-22 20:22 48.51297 18.57220 35739 ft 478 kts 201°
2026-04-22 20:23 48.48273 18.55147 36002 ft 478 kts 201°
2026-04-22 20:23 48.45250 18.53077 36292 ft 477 kts 201°
2026-04-22 20:23 48.42274 18.51042 36591 ft 476 kts 201°
2026-04-22 20:23 48.39263 18.48986 36863 ft 475 kts 202°
2026-04-22 20:24 48.36251 18.46933 37123 ft 475 kts 202°
2026-04-22 20:24 48.33246 18.44887 37391 ft 474 kts 202°
2026-04-22 20:24 48.30239 18.42842 37679 ft 473 kts 202°
2026-04-22 20:24 48.27240 18.40805 37951 ft 473 kts 202°
2026-04-22 20:25 48.24246 18.38775 38173 ft 473 kts 203°
2026-04-22 20:25 48.18210 18.34689 38176 ft 477 kts 203°
2026-04-22 20:26 48.12177 18.30614 38161 ft 472 kts 203°
2026-04-22 20:26 48.06213 18.26596 38170 ft 468 kts 203°
2026-04-22 20:27 48.00281 18.22611 38173 ft 467 kts 203°
2026-04-22 20:27 47.94357 18.18642 38174 ft 466 kts 203°
2026-04-22 20:28 47.88437 18.14684 38176 ft 466 kts 203°
2026-04-22 20:28 47.82514 18.10734 38178 ft 467 kts 203°
2026-04-22 20:29 47.76577 18.06784 38179 ft 468 kts 203°
2026-04-22 20:29 47.70687 18.02639 38183 ft 469 kts 206°
2026-04-22 20:30 47.64859 17.98219 38187 ft 471 kts 207°
2026-04-22 20:30 47.59022 17.93800 38189 ft 472 kts 206°
2026-04-22 20:31 47.53148 17.89417 38187 ft 473 kts 206°
2026-04-22 20:31 47.47295 17.85085 38186 ft 474 kts 206°
2026-04-22 20:32 47.41389 17.80729 38187 ft 474 kts 206°
2026-04-22 20:32 47.35480 17.76381 38190 ft 475 kts 206°
2026-04-22 20:33 47.29566 17.72039 38188 ft 474 kts 206°
2026-04-22 20:33 47.23659 17.67713 38188 ft 474 kts 206°
2026-04-22 20:34 47.17761 17.63403 38188 ft 473 kts 206°
2026-04-22 20:34 47.11871 17.59111 38189 ft 472 kts 206°
2026-04-22 20:35 47.05989 17.54835 38187 ft 471 kts 206°
2026-04-22 20:35 47.00126 17.50582 38187 ft 470 kts 206°
2026-04-22 20:36 46.94262 17.46341 38186 ft 469 kts 207°
2026-04-22 20:36 46.88406 17.42114 38194 ft 468 kts 207°
2026-04-22 20:37 46.82562 17.37907 38203 ft 468 kts 207°
2026-04-22 20:37 46.76719 17.33711 38206 ft 468 kts 207°
2026-04-22 20:38 46.70871 17.29521 38219 ft 468 kts 207°
2026-04-22 20:38 46.65058 17.25367 38214 ft 469 kts 207°
2026-04-22 20:39 46.59194 17.21186 38214 ft 469 kts 207°
2026-04-22 20:39 46.53328 17.17014 38208 ft 470 kts 207°
2026-04-22 20:40 46.47446 17.12841 38211 ft 470 kts 207°
2026-04-22 20:40 46.41549 17.08666 38201 ft 471 kts 207°
2026-04-22 20:41 46.35664 17.04510 38196 ft 471 kts 207°
2026-04-22 20:41 46.29763 17.00351 38195 ft 471 kts 207°
2026-04-22 20:42 46.23933 16.96019 38191 ft 470 kts 214°
2026-04-22 20:42 46.18867 16.90141 38202 ft 466 kts 223°
2026-04-22 20:43 46.13968 16.84014 38208 ft 466 kts 223°
2026-04-22 20:43 46.09122 16.77955 38167 ft 459 kts 223°
2026-04-22 20:43 46.06720 16.74958 37724 ft 455 kts 223°
2026-04-22 20:44 46.04348 16.72003 37407 ft 448 kts 223°
2026-04-22 20:44 46.01996 16.69077 36992 ft 445 kts 223°
2026-04-22 20:44 45.99665 16.66178 36618 ft 442 kts 223°
2026-04-22 20:44 45.97347 16.63301 36244 ft 438 kts 223°
2026-04-22 20:45 45.95046 16.60446 35850 ft 435 kts 223°
2026-04-22 20:45 45.92758 16.57612 35464 ft 433 kts 223°
2026-04-22 20:45 45.90481 16.54794 35080 ft 431 kts 223°
2026-04-22 20:45 45.88216 16.51994 34695 ft 429 kts 223°
2026-04-22 20:46 45.83714 16.46439 33855 ft 425 kts 223°
2026-04-22 20:46 45.81479 16.43686 33437 ft 422 kts 222°
2026-04-22 20:46 45.79254 16.40949 33037 ft 420 kts 222°
2026-04-22 20:47 45.77047 16.38237 32647 ft 417 kts 222°
2026-04-22 20:47 45.74854 16.35544 32269 ft 414 kts 222°
2026-04-22 20:47 45.72676 16.32873 31895 ft 411 kts 222°
2026-04-22 20:47 45.70513 16.30224 31528 ft 408 kts 222°
2026-04-22 20:48 45.68358 16.27586 31160 ft 406 kts 222°
2026-04-22 20:48 45.66215 16.24966 30777 ft 404 kts 222°
2026-04-22 20:48 45.64084 16.22364 30430 ft 402 kts 222°
2026-04-22 20:48 45.61966 16.19779 30028 ft 400 kts 222°
2026-04-22 20:49 45.59856 16.17208 29603 ft 397 kts 222°
2026-04-22 20:49 45.57769 16.14668 29228 ft 393 kts 222°
2026-04-22 20:49 45.55697 16.12148 28845 ft 390 kts 222°
2026-04-22 20:49 45.53666 16.09681 28458 ft 386 kts 222°
2026-04-22 20:50 45.51628 16.07207 28100 ft 383 kts 223°
2026-04-22 20:50 45.49602 16.04750 27720 ft 381 kts 223°
2026-04-22 20:50 45.47592 16.02316 27361 ft 378 kts 223°
2026-04-22 20:50 45.45597 15.99901 26996 ft 375 kts 223°
2026-04-22 20:51 45.43613 15.97501 26637 ft 373 kts 223°
2026-04-22 20:51 45.41639 15.95117 26276 ft 371 kts 223°
2026-04-22 20:51 45.39681 15.92753 25925 ft 369 kts 223°
2026-04-22 20:51 45.37729 15.90400 25566 ft 367 kts 223°
2026-04-22 20:52 45.35785 15.88057 25209 ft 365 kts 223°
2026-04-22 20:52 45.33847 15.85725 24860 ft 364 kts 223°
2026-04-22 20:52 45.31919 15.83407 24509 ft 362 kts 223°
2026-04-22 20:52 45.29998 15.81099 24148 ft 361 kts 223°
2026-04-22 20:53 45.28081 15.78798 23790 ft 361 kts 223°
2026-04-22 20:53 45.26169 15.76504 23372 ft 359 kts 223°
2026-04-22 20:53 45.24263 15.74221 22985 ft 357 kts 223°
2026-04-22 20:53 45.22365 15.71950 22622 ft 355 kts 223°
2026-04-22 20:54 45.20485 15.69702 22270 ft 353 kts 223°
2026-04-22 20:54 45.18615 15.67468 21927 ft 350 kts 223°
2026-04-22 20:54 45.16756 15.65249 21577 ft 348 kts 223°
2026-04-22 20:54 45.14905 15.63041 21236 ft 346 kts 223°
2026-04-22 20:55 45.13066 15.60850 20896 ft 345 kts 223°
2026-04-22 20:55 45.11236 15.58671 20557 ft 343 kts 223°
2026-04-22 20:55 45.09413 15.56502 20216 ft 342 kts 223°
2026-04-22 20:55 45.07617 15.54367 19883 ft 340 kts 223°
2026-04-22 20:56 45.05785 15.52192 19545 ft 339 kts 223°
2026-04-22 20:56 45.03979 15.50049 19210 ft 338 kts 223°
2026-04-22 20:56 45.02177 15.47912 18869 ft 337 kts 223°
2026-04-22 20:56 45.00403 15.45811 18545 ft 336 kts 222°
2026-04-22 20:57 44.98614 15.43693 18163 ft 335 kts 222°
2026-04-22 20:57 44.96826 15.41579 17802 ft 334 kts 222°
2026-04-22 20:57 44.95024 15.39450 17449 ft 333 kts 222°
2026-04-22 20:57 44.93272 15.37382 17108 ft 331 kts 222°
2026-04-22 20:58 44.91445 15.35347 16724 ft 332 kts 212°
2026-04-22 20:58 44.89388 15.33940 16348 ft 333 kts 205°
2026-04-22 20:58 44.87268 15.32641 16007 ft 331 kts 204°
2026-04-22 20:58 44.85161 15.31365 15685 ft 329 kts 204°
2026-04-22 20:59 44.83061 15.30086 15332 ft 328 kts 204°
2026-04-22 20:59 44.80975 15.28805 15024 ft 327 kts 204°
2026-04-22 20:59 44.78902 15.27523 14739 ft 324 kts 204°
2026-04-22 20:59 44.76841 15.26244 14433 ft 322 kts 204°
2026-04-22 21:00 44.74795 15.24970 14101 ft 321 kts 204°
2026-04-22 21:00 44.72756 15.23700 13775 ft 319 kts 204°
2026-04-22 21:00 44.70730 15.22436 13410 ft 318 kts 205°
2026-04-22 21:00 44.68709 15.21177 13086 ft 317 kts 204°
2026-04-22 21:01 44.66701 15.19926 12754 ft 315 kts 204°
2026-04-22 21:01 44.64704 15.18682 12397 ft 314 kts 204°
2026-04-22 21:01 44.62713 15.17443 12094 ft 312 kts 204°
2026-04-22 21:01 44.60742 15.16217 11860 ft 308 kts 204°
2026-04-22 21:02 44.58799 15.15011 11638 ft 303 kts 204°
2026-04-22 21:02 44.57521 15.14217 11448 ft 302 kts 204°
2026-04-22 21:02 44.55606 15.13030 11137 ft 301 kts 204°
2026-04-22 21:02 44.53695 15.11844 10860 ft 299 kts 204°
2026-04-22 21:03 44.51800 15.10669 10551 ft 297 kts 204°
2026-04-22 21:03 44.49909 15.09498 10232 ft 297 kts 203°
2026-04-22 21:03 44.48025 15.08332 9928 ft 296 kts 203°
2026-04-22 21:03 44.46146 15.07169 9607 ft 295 kts 203°
2026-04-22 21:04 44.44276 15.06013 9280 ft 294 kts 203°
2026-04-22 21:04 44.42400 15.04855 8933 ft 295 kts 202°
2026-04-22 21:04 44.40497 15.03681 8345 ft 304 kts 202°
2026-04-22 21:04 44.38539 15.02475 7794 ft 311 kts 202°
2026-04-22 21:05 44.36470 15.01596 7212 ft 313 kts 179°
2026-04-22 21:05 44.34368 15.02125 6605 ft 303 kts 146°
2026-04-22 21:05 44.32811 15.03898 6224 ft 280 kts 125°
2026-04-22 21:05 44.31593 15.05951 5824 ft 270 kts 122°
2026-04-22 21:06 44.30410 15.07951 5456 ft 264 kts 125°
2026-04-22 21:06 44.29158 15.09796 5096 ft 259 kts 128°
2026-04-22 21:06 44.27887 15.11534 4761 ft 252 kts 129°
2026-04-22 21:06 44.26658 15.13186 4425 ft 240 kts 129°
2026-04-22 21:07 44.25488 15.14767 4086 ft 228 kts 129°
2026-04-22 21:07 44.24374 15.16275 3780 ft 218 kts 130°
2026-04-22 21:07 44.23294 15.17744 3496 ft 215 kts 130°
2026-04-22 21:07 44.22244 15.19168 3209 ft 205 kts 130°
2026-04-22 21:08 44.21259 15.20503 2942 ft 195 kts 130°
2026-04-22 21:08 44.20306 15.21798 2643 ft 187 kts 131°
2026-04-22 21:08 44.19392 15.23039 2393 ft 179 kts 133°
2026-04-22 21:08 44.18537 15.24198 2143 ft 163 kts 134°
2026-04-22 21:09 44.17758 15.25255 1903 ft 150 kts 134°
2026-04-22 21:09 44.17040 15.26231 1739 ft 144 kts 134°
2026-04-22 21:09 44.16322 15.27206 1560 ft 146 kts 134°
2026-04-22 21:09 44.15589 15.28203 1372 ft 149 kts 134°
2026-04-22 21:10 44.14845 15.29212 1168 ft 149 kts 133°
2026-04-22 21:10 44.14098 15.30226 975 ft 151 kts 133°
2026-04-22 21:10 44.13349 15.31249 764 ft 150 kts 133°
2026-04-22 21:10 44.12608 15.32264 552 ft 148 kts 134°
2026-04-22 21:11 44.11871 15.33257 413 ft 149 kts 133°
2026-04-22 21:11 44.11133 15.34266 288 ft 140 kts 134°
2026-04-22 21:11 44.10561 15.35032 288 ft 84 kts 135°
2026-04-22 21:11 44.10295 15.35393 287 ft 32 kts 136°
2026-04-22 21:12 44.10147 15.35589 288 ft 23 kts 135°
2026-04-22 21:12 44.10049 15.35713 289 ft 9 kts 164°
2026-04-22 21:12 44.09995 15.35674 289 ft 9 kts 220°
2026-04-22 21:12 44.09948 15.35609 288 ft 9 kts 228°
2026-04-22 21:13 44.09903 15.35545 287 ft 9 kts 215°
2026-04-22 21:13 44.09831 15.35536 285 ft 11 kts 179°
2026-04-22 21:13 44.09750 15.35538 284 ft 12 kts 179°
2026-04-22 21:13 44.09670 15.35541 284 ft 11 kts 179°
2026-04-22 21:14 44.09631 15.35500 285 ft 8 kts 275°
2026-04-22 21:14 44.09655 15.35451 284 ft 4 kts 325°
2026-04-22 21:14 44.09667 15.35440 284 ft 0 kts 326°
2026-04-22 21:14 44.09670 15.35437 284 ft 0 kts 326°